Location: The Saddle
(36.8333°N, 80.3417°W)
Time: 11:03:23
(UTC-05:00)

N. Korean satellite - Visible Passes

Search period start: 03 December 2021 00:00
Search period end: 13 December 2021 00:00
Orbit: 447 x 495 km, 97.3° (Epoch: 02 December)

Date Brightness Start Highest point End Pass type
(mag) Time Alt. Az. Time Alt. Az. Time Alt. Az.
03 Dec 8.4 05:05:12 10° NE 05:08:12 30° E 05:11:12 10° SSE visible
03 Dec 8.3 06:39:45 10° NW 06:41:05 12° WNW 06:42:24 10° W visible
04 Dec 9.8 04:38:05 10° ENE 04:39:33 12° E 04:41:01 10° ESE visible
04 Dec 7.3 06:09:52 10° NNW 06:12:47 27° WNW 06:15:41 10° SW visible
05 Dec 6.2 05:40:59 10° N 05:44:21 74° WNW 05:47:43 10° SSW visible
05 Dec 9.7 17:46:55 10° SW 17:49:08 16° W 17:51:20 10° NW visible
06 Dec 7.8 05:12:38 10° NNE 05:15:50 38° E 05:19:00 10° S visible
07 Dec 9.5 04:45:03 10° NE 04:47:10 16° E 04:49:18 10° SE visible
07 Dec 7.6 06:17:39 10° NNW 06:20:18 22° WNW 06:22:57 10° WSW visible
08 Dec 6.4 05:48:34 10° N 05:51:54 56° WNW 05:55:12 10° SSW visible
08 Dec 9.9 17:55:14 10° WSW 17:56:43 12° W 17:58:13 10° WNW visible
09 Dec 7.2 05:20:03 10° NNE 05:23:21 50° E 05:26:39 10° S visible
10 Dec 9.1 04:52:09 10° NE 04:54:42 20° E 04:57:15 10° SE visible
10 Dec 7.9 06:26:09 13° NW 06:27:44 18° WNW 06:30:04 10° WSW visible
11 Dec 6.7 05:57:59 28° NNW 05:59:19 42° WNW 06:02:33 10° SSW visible
12 Dec 6.7 05:29:37 37° NNE 05:30:46 67° E 05:34:10 10° S visible
12 Dec 9.3 17:32:40 10° SSW 17:35:28 23° W 17:38:16 10° NW visible
